Time,TemperatureF,DewpointF,PressureIn,WindDirection,WindDirectionDegrees,WindSpeedMPH,WindSpeedGustMPH,Humidity,HourlyPrecipIn,Conditions,Clouds,dailyrainin,SoftwareType,DateUTC
2013-08-06 00:01:00,65.9,56.6,30.02,SSW,207,0.0,0.0,72,0.00,,---,0.00,VWS V14.01,2013-08-06 04:01:00,
2013-08-06 00:02:00,65.9,56.2,30.02,SSW,207,0.0,0.0,71,0.00,,---,0.00,VWS V14.01,2013-08-06 04:02:00,
2013-08-06 00:04:00,65.9,56.6,30.02,SSW,204,0.0,0.0,72,0.00,,---,0.00,VWS V14.01,2013-08-06 04:04:00,
2013-08-06 00:09:00,65.9,56.6,30.02,SSW,204,0.0,0.0,72,0.00,,---,0.00,VWS V14.01,2013-08-06 04:09:00,
2013-08-06 00:15:00,65.9,56.6,30.02,SSW,204,0.0,0.0,72,0.00,,---,0.00,VWS V14.01,2013-08-06 04:15:00,
2013-08-06 00:20:00,65.8,56.5,30.02,SSW,204,0.0,0.0,72,0.00,,---,0.00,VWS V14.01,2013-08-06 04:20:00,
2013-08-06 00:25:00,65.8,56.9,30.02,SE,146,0.0,0.0,73,0.00,,---,0.00,VWS V14.01,2013-08-06 04:25:00,
2013-08-06 00:30:00,65.7,56.8,30.02,SE,128,0.0,0.0,73,0.00,,---,0.00,VWS V14.01,2013-08-06 04:30:00,
2013-08-06 00:35:00,65.6,57.1,30.02,SE,132,0.0,0.0,74,0.00,,---,0.00,VWS V14.01,2013-08-06 04:35:00,
2013-08-06 00:40:00,65.5,57.0,30.02,SE,132,0.0,0.0,74,0.00,,---,0.00,VWS V14.01,2013-08-06 04:40:00,
2013-08-06 00:45:00,65.4,57.3,30.02,SE,132,0.0,0.0,75,0.00,,---,0.00,VWS V14.01,2013-08-06 04:45:00,
2013-08-06 00:50:00,65.3,57.2,30.02,SE,132,0.0,0.0,75,0.00,,---,0.00,VWS V14.01,2013-08-06 04:50:00,
2013-08-06 00:55:00,65.2,57.1,30.02,SE,132,0.0,0.0,75,0.00,,---,0.00,VWS V14.01,2013-08-06 04:55:00,
2013-08-06 01:00:00,65.1,57.0,30.02,SE,132,0.0,0.0,75,0.00,,---,0.00,VWS V14.01,2013-08-06 05:00:00,
2013-08-06 01:05:00,65.1,56.6,30.02,SE,133,0.0,0.0,74,0.00,,---,0.00,VWS V14.01,2013-08-06 05:05:00,
2013-08-06 01:10:00,65.1,57.4,30.02,SE,132,0.0,0.0,76,0.00,,---,0.00,VWS V14.01,2013-08-06 05:10:00,
2013-08-06 01:15:00,65.0,57.3,30.02,SE,132,0.0,0.0,76,0.00,,---,0.00,VWS V14.01,2013-08-06 05:15:00,
2013-08-06 01:21:00,64.9,57.2,30.02,SE,132,0.0,0.0,76,0.00,,---,0.00,VWS V14.01,2013-08-06 05:21:00,
2013-08-06 01:26:00,64.9,56.8,30.02,SE,132,0.0,0.0,75,0.00,,---,0.00,VWS V14.01,2013-08-06 05:26:00,
2013-08-06 01:31:00,64.9,56.4,30.02,SE,132,0.0,0.0,74,0.00,,---,0.00,VWS V14.01,2013-08-06 05:31:00,
2013-08-06 01:36:00,65.0,56.9,30.02,SE,132,0.0,0.0,75,0.00,,---,0.00,VWS V14.01,2013-08-06 05:36:00,
2013-08-06 01:41:00,65.0,56.9,30.01,SE,132,0.0,0.0,75,0.00,,---,0.00,VWS V14.01,2013-08-06 05:41:00,
2013-08-06 01:46:00,64.9,57.2,30.01,SE,132,0.0,0.0,76,0.00,,---,0.00,VWS V14.01,2013-08-06 05:46:00,
2013-08-06 01:51:00,64.9,56.8,30.02,SSE,154,0.0,0.0,75,0.00,,---,0.00,VWS V14.01,2013-08-06 05:51:00,
2013-08-06 01:56:00,64.9,57.2,30.02,SSE,154,0.0,0.0,76,0.00,,---,0.00,VWS V14.01,2013-08-06 05:56:00,
2013-08-06 02:01:00,64.9,57.2,30.02,SSE,153,0.0,0.0,76,0.00,,---,0.00,VWS V14.01,2013-08-06 06:01:00,
2013-08-06 02:06:00,64.7,57.3,30.02,SE,146,0.0,0.0,77,0.00,,---,0.00,VWS V14.01,2013-08-06 06:06:00,
2013-08-06 02:11:00,64.7,57.3,30.01,SE,142,0.0,0.0,77,0.00,,---,0.00,VWS V14.01,2013-08-06 06:11:00,
2013-08-06 02:16:00,64.8,57.1,30.01,SE,141,0.0,0.0,76,0.00,,---,0.00,VWS V14.01,2013-08-06 06:16:00,
2013-08-06 02:21:00,64.9,57.5,30.01,ESE,121,0.0,0.0,77,0.00,,---,0.00,VWS V14.01,2013-08-06 06:21:00,
2013-08-06 02:26:00,64.8,57.1,30.01,ESE,121,0.0,0.0,76,0.00,,---,0.00,VWS V14.01,2013-08-06 06:26:00,
2013-08-06 02:31:00,64.9,57.2,30.01,SE,141,0.0,0.0,76,0.00,,---,0.00,VWS V14.01,2013-08-06 06:31:00,
2013-08-06 02:36:00,65.0,57.3,30.01,SE,142,0.0,0.0,76,0.00,,---,0.00,VWS V14.01,2013-08-06 06:36:00,
2013-08-06 02:41:00,64.9,57.2,30.01,SE,142,0.0,0.0,76,0.00,,---,0.00,VWS V14.01,2013-08-06 06:41:00,
2013-08-06 02:47:00,64.8,57.1,30.01,SE,142,0.0,0.0,76,0.00,,---,0.00,VWS V14.01,2013-08-06 06:47:00,
2013-08-06 02:52:00,64.7,57.3,30.00,SE,143,0.0,0.0,77,0.00,,---,0.00,VWS V14.01,2013-08-06 06:52:00,
2013-08-06 02:57:00,64.5,57.1,30.01,SE,142,0.0,0.0,77,0.00,,---,0.00,VWS V14.01,2013-08-06 06:57:00,
2013-08-06 03:02:00,64.4,57.4,30.01,SE,142,0.0,0.0,78,0.00,,---,0.00,VWS V14.01,2013-08-06 07:02:00,
2013-08-06 03:07:00,64.2,57.2,30.01,SE,142,0.0,0.0,78,0.00,,---,0.00,VWS V14.01,2013-08-06 07:07:00,
2013-08-06 03:12:00,64.1,57.5,30.01,SE,139,0.0,0.0,79,0.00,,---,0.00,VWS V14.01,2013-08-06 07:12:00,
2013-08-06 03:17:00,63.9,57.3,30.00,SE,138,0.0,0.0,79,0.00,,---,0.00,VWS V14.01,2013-08-06 07:17:00,
2013-08-06 03:22:00,63.9,57.6,30.01,SE,140,0.0,0.0,80,0.00,,---,0.00,VWS V14.01,2013-08-06 07:22:00,
2013-08-06 03:27:00,63.9,57.6,30.01,SE,139,0.0,0.0,80,0.00,,---,0.00,VWS V14.01,2013-08-06 07:27:00,
2013-08-06 03:32:00,63.8,57.9,30.00,SE,140,0.0,0.0,81,0.00,,---,0.00,VWS V14.01,2013-08-06 07:32:00,
2013-08-06 03:37:00,63.8,57.5,30.00,SE,142,0.0,0.0,80,0.00,,---,0.00,VWS V14.01,2013-08-06 07:37:00,
2013-08-06 03:42:00,63.7,57.4,30.00,SE,143,0.0,0.0,80,0.00,,---,0.00,VWS V14.01,2013-08-06 07:42:00,
2013-08-06 03:47:00,63.7,57.8,30.00,SE,142,0.0,0.0,81,0.00,,---,0.00,VWS V14.01,2013-08-06 07:47:00,
2013-08-06 03:52:00,63.7,58.1,30.00,SE,131,0.0,0.0,82,0.00,,---,0.00,VWS V14.01,2013-08-06 07:52:00,
2013-08-06 03:57:00,63.7,58.1,30.00,ESE,121,0.0,0.0,82,0.00,,---,0.00,VWS V14.01,2013-08-06 07:57:00,
2013-08-06 04:02:00,63.7,58.1,30.00,SE,130,0.0,0.0,82,0.00,,---,0.00,VWS V14.01,2013-08-06 08:02:00,
2013-08-06 04:07:00,63.7,58.1,30.00,SE,132,0.0,0.0,82,0.00,,---,0.00,VWS V14.01,2013-08-06 08:07:00,
2013-08-06 04:12:00,63.8,58.2,29.99,SE,124,1.0,1.0,82,0.00,,---,0.00,VWS V14.01,2013-08-06 08:12:00,
2013-08-06 04:18:00,63.7,58.1,30.00,SE,140,0.0,0.0,82,0.00,,---,0.00,VWS V14.01,2013-08-06 08:18:00,
2013-08-06 04:23:00,63.9,58.3,30.00,SE,130,1.0,1.0,82,0.00,,---,0.00,VWS V14.01,2013-08-06 08:23:00,
2013-08-06 04:28:00,63.9,58.3,30.00,SE,130,0.0,1.0,82,0.00,,---,0.00,VWS V14.01,2013-08-06 08:28:00,
2013-08-06 04:33:00,63.9,58.3,30.00,SE,128,0.0,1.0,82,0.00,,---,0.00,VWS V14.01,2013-08-06 08:33:00,
2013-08-06 04:38:00,63.8,58.5,29.99,ESE,117,1.0,1.0,83,0.00,,---,0.00,VWS V14.01,2013-08-06 08:38:00,
2013-08-06 04:43:00,63.7,58.5,29.99,ESE,107,1.0,1.0,83,0.00,,---,0.00,VWS V14.01,2013-08-06 08:43:00,
2013-08-06 04:48:00,63.6,58.7,30.00,ESE,111,0.0,1.0,84,0.00,,---,0.00,VWS V14.01,2013-08-06 08:48:00,
2013-08-06 04:53:00,63.6,58.7,30.00,ESE,120,0.0,0.0,84,0.00,,---,0.00,VWS V14.01,2013-08-06 08:53:00,
2013-08-06 04:58:00,63.6,58.7,30.00,ESE,113,0.0,0.0,84,0.00,,---,0.00,VWS V14.01,2013-08-06 08:58:00,
2013-08-06 05:03:00,63.5,58.9,30.00,ESE,111,0.0,1.0,85,0.00,,---,0.00,VWS V14.01,2013-08-06 09:03:00,
2013-08-06 05:08:00,63.4,58.8,30.00,ESE,112,0.0,1.0,85,0.00,,---,0.00,VWS V14.01,2013-08-06 09:08:00,
2013-08-06 05:13:00,63.3,59.0,30.00,ESE,108,1.0,1.0,86,0.00,,---,0.00,VWS V14.01,2013-08-06 09:13:00,
2013-08-06 05:18:00,63.0,59.4,30.00,ESE,117,0.0,0.0,88,0.00,,---,0.00,VWS V14.01,2013-08-06 09:18:00,
2013-08-06 05:24:00,62.4,59.4,30.00,ESE,122,1.0,1.0,90,0.00,,---,0.00,VWS V14.01,2013-08-06 09:24:00,
2013-08-06 05:29:00,62.0,59.3,30.00,ESE,122,0.0,1.0,91,0.00,,---,0.00,VWS V14.01,2013-08-06 09:29:00,
2013-08-06 05:34:00,61.7,59.4,30.00,SE,129,0.0,0.0,92,0.00,,---,0.00,VWS V14.01,2013-08-06 09:34:00,
2013-08-06 05:39:00,61.6,59.6,30.01,SE,129,1.0,1.0,93,0.00,,---,0.00,VWS V14.01,2013-08-06 09:39:00,
2013-08-06 05:44:00,61.6,59.9,30.01,ESE,118,0.0,1.0,94,0.00,,---,0.00,VWS V14.01,2013-08-06 09:44:00,
2013-08-06 05:49:00,61.5,59.8,30.01,SE,138,0.0,0.0,94,0.00,,---,0.00,VWS V14.01,2013-08-06 09:49:00,
2013-08-06 05:54:00,61.5,60.1,30.01,ESE,114,0.0,0.0,95,0.02,,---,0.02,VWS V14.01,2013-08-06 09:54:00,
2013-08-06 06:00:00,61.4,60.0,30.01,ESE,117,0.0,0.0,95,0.04,,---,0.04,VWS V14.01,2013-08-06 10:00:00,
2013-08-06 06:05:00,61.4,60.2,30.01,ESE,115,0.0,0.0,96,0.06,,---,0.06,VWS V14.01,2013-08-06 10:05:00,
2013-08-06 06:10:00,61.3,60.2,30.01,ESE,112,0.0,0.0,96,0.09,,---,0.09,VWS V14.01,2013-08-06 10:10:00,
2013-08-06 06:15:00,61.2,60.0,30.01,ESE,110,0.0,0.0,96,0.12,,---,0.12,VWS V14.01,2013-08-06 10:15:00,
2013-08-06 06:20:00,61.1,60.0,30.01,ESE,114,0.0,1.0,96,0.13,,---,0.13,VWS V14.01,2013-08-06 10:20:00,
2013-08-06 06:25:00,61.2,60.0,30.01,ESE,121,0.0,0.0,96,0.13,,---,0.13,VWS V14.01,2013-08-06 10:25:00,
2013-08-06 06:30:00,61.1,60.2,30.00,SE,125,0.0,0.0,97,0.15,,---,0.15,VWS V14.01,2013-08-06 10:30:00,
2013-08-06 06:35:00,61.1,60.2,30.00,ESE,108,0.0,0.0,97,0.17,,---,0.17,VWS V14.01,2013-08-06 10:35:00,
2013-08-06 06:41:00,61.2,60.3,30.00,ESE,107,0.0,0.0,97,0.17,,---,0.17,VWS V14.01,2013-08-06 10:41:00,
2013-08-06 06:46:00,61.2,60.3,30.01,ESE,120,0.0,0.0,97,0.17,,---,0.17,VWS V14.01,2013-08-06 10:46:00,
2013-08-06 06:51:00,61.2,60.3,30.01,ESE,120,0.0,0.0,97,0.16,,---,0.17,VWS V14.01,2013-08-06 10:51:00,
2013-08-06 06:56:00,61.2,60.3,30.01,ESE,113,0.0,0.0,97,0.17,,---,0.20,VWS V14.01,2013-08-06 10:56:00,
2013-08-06 07:01:00,61.2,60.3,30.01,ESE,110,0.0,0.0,97,0.18,,---,0.22,VWS V14.01,2013-08-06 11:01:00,
2013-08-06 07:06:00,61.3,60.4,30.01,ESE,120,0.0,0.0,97,0.17,,---,0.23,VWS V14.01,2013-08-06 11:06:00,
2013-08-06 07:12:00,61.3,60.4,30.01,SE,143,0.0,0.0,97,0.15,,---,0.24,VWS V14.01,2013-08-06 11:12:00,
2013-08-06 07:17:00,61.2,60.3,30.01,ESE,121,0.0,0.0,97,0.14,,---,0.26,VWS V14.01,2013-08-06 11:17:00,
2013-08-06 07:22:00,61.3,60.4,30.02,ESE,122,0.0,0.0,97,0.15,,---,0.28,VWS V14.01,2013-08-06 11:22:00,
2013-08-06 07:27:00,61.3,60.7,30.01,ESE,104,0.0,0.0,98,0.19,,---,0.32,VWS V14.01,2013-08-06 11:27:00,
2013-08-06 07:32:00,61.3,60.7,30.01,ESE,114,0.0,0.0,98,0.26,,---,0.41,VWS V14.01,2013-08-06 11:32:00,
2013-08-06 07:37:00,61.4,60.8,30.02,ESE,113,0.0,0.0,98,0.24,,---,0.41,VWS V14.01,2013-08-06 11:37:00,
2013-08-06 07:42:00,61.4,60.8,30.01,ESE,113,0.0,0.0,98,0.25,,---,0.42,VWS V14.01,2013-08-06 11:42:00,
2013-08-06 07:47:00,61.4,60.8,30.01,ESE,113,0.0,0.0,98,0.25,,---,0.42,VWS V14.01,2013-08-06 11:47:00,
2013-08-06 07:52:00,61.5,60.9,30.01,ESE,113,0.0,0.0,98,0.26,,---,0.43,VWS V14.01,2013-08-06 11:52:00,
2013-08-06 07:57:00,61.5,60.9,30.01,ESE,114,0.0,0.0,98,0.25,,---,0.45,VWS V14.01,2013-08-06 11:57:00,
2013-08-06 08:02:00,61.6,61.0,30.01,ESE,118,0.0,0.0,98,0.25,,---,0.47,VWS V14.01,2013-08-06 12:02:00,
2013-08-06 08:07:00,61.6,61.0,30.02,ESE,119,0.0,0.0,98,0.25,,---,0.48,VWS V14.01,2013-08-06 12:07:00,
2013-08-06 08:12:00,61.6,61.0,30.02,ESE,119,0.0,0.0,98,0.26,,---,0.50,VWS V14.01,2013-08-06 12:12:00,
2013-08-06 08:17:00,61.6,61.0,30.02,ESE,119,0.0,0.0,98,0.25,,---,0.51,VWS V14.01,2013-08-06 12:17:00,
2013-08-06 08:23:00,61.6,61.0,30.02,ESE,118,0.0,0.0,98,0.25,,---,0.53,VWS V14.01,2013-08-06 12:23:00,
2013-08-06 08:28:00,61.7,61.1,30.03,South,172,0.0,0.0,98,0.22,,---,0.54,VWS V14.01,2013-08-06 12:28:00,
2013-08-06 08:33:00,61.8,61.2,30.03,ESE,104,0.0,0.0,98,0.13,,---,0.54,VWS V14.01,2013-08-06 12:33:00,
2013-08-06 08:38:00,61.9,61.3,30.02,ESE,107,0.0,0.0,98,0.13,,---,0.54,VWS V14.01,2013-08-06 12:38:00,
2013-08-06 08:43:00,62.0,61.4,30.01,SE,130,0.0,1.0,98,0.13,,---,0.55,VWS V14.01,2013-08-06 12:43:00,
2013-08-06 08:48:00,62.0,61.4,30.02,SE,130,0.0,0.0,98,0.13,,---,0.55,VWS V14.01,2013-08-06 12:48:00,
2013-08-06 08:53:00,62.0,61.4,30.02,ESE,105,0.0,1.0,98,0.12,,---,0.55,VWS V14.01,2013-08-06 12:53:00,
2013-08-06 08:58:00,62.1,61.5,30.02,ESE,110,0.0,1.0,98,0.10,,---,0.55,VWS V14.01,2013-08-06 12:58:00,
2013-08-06 09:04:00,62.2,61.6,30.02,ESE,113,0.0,0.0,98,0.08,,---,0.55,VWS V14.01,2013-08-06 13:04:00,
2013-08-06 09:09:00,62.3,61.7,30.02,ESE,112,0.0,0.0,98,0.07,,---,0.55,VWS V14.01,2013-08-06 13:09:00,
2013-08-06 09:14:00,62.4,61.8,30.02,ESE,120,0.0,1.0,98,0.05,,---,0.55,VWS V14.01,2013-08-06 13:14:00,
2013-08-06 09:19:00,62.4,61.8,30.02,ESE,117,0.0,0.0,98,0.04,,---,0.55,VWS V14.01,2013-08-06 13:19:00,
2013-08-06 09:24:00,62.5,61.9,30.02,ESE,110,0.0,0.0,98,0.02,,---,0.55,VWS V14.01,2013-08-06 13:24:00,
2013-08-06 09:29:00,62.5,61.9,30.01,ESE,110,0.0,0.0,98,0.01,,---,0.55,VWS V14.01,2013-08-06 13:29:00,
2013-08-06 09:34:00,62.6,62.0,30.02,ESE,110,0.0,0.0,98,0.01,,---,0.55,VWS V14.01,2013-08-06 13:34:00,
2013-08-06 09:39:00,62.8,62.2,30.02,ESE,108,0.0,0.0,98,0.01,,---,0.55,VWS V14.01,2013-08-06 13:39:00,
2013-08-06 09:45:00,63.0,62.4,30.02,ESE,112,0.0,1.0,98,0.00,,---,0.55,VWS V14.01,2013-08-06 13:45:00,
2013-08-06 09:50:00,63.0,62.4,30.02,ESE,112,0.0,0.0,98,0.00,,---,0.55,VWS V14.01,2013-08-06 13:50:00,
2013-08-06 09:55:00,63.2,62.6,30.02,ESE,112,0.0,0.0,98,0.00,,---,0.55,VWS V14.01,2013-08-06 13:55:00,
2013-08-06 10:00:00,63.3,62.7,30.02,ESE,107,0.0,0.0,98,0.00,,---,0.55,VWS V14.01,2013-08-06 14:00:00,
2013-08-06 10:05:00,63.2,62.6,30.03,ESE,108,0.0,0.0,98,0.00,,---,0.55,VWS V14.01,2013-08-06 14:05:00,
2013-08-06 10:10:00,63.3,62.7,30.03,ESE,107,0.0,0.0,98,0.00,,---,0.55,VWS V14.01,2013-08-06 14:10:00,
2013-08-06 10:15:00,63.3,62.7,30.03,ESE,119,0.0,0.0,98,0.00,,---,0.55,VWS V14.01,2013-08-06 14:15:00,
2013-08-06 10:20:00,63.4,62.8,30.03,ESE,111,0.0,0.0,98,0.00,,---,0.55,VWS V14.01,2013-08-06 14:20:00,
2013-08-06 10:25:00,63.4,62.8,30.03,ESE,111,0.0,0.0,98,0.00,,---,0.55,VWS V14.01,2013-08-06 14:25:00,
2013-08-06 10:30:00,63.5,62.9,30.03,ESE,112,0.0,0.0,98,0.00,,---,0.55,VWS V14.01,2013-08-06 14:30:00,
2013-08-06 10:35:00,63.5,62.9,30.03,ESE,111,0.0,0.0,98,0.00,,---,0.55,VWS V14.01,2013-08-06 14:35:00,
2013-08-06 10:40:00,63.6,63.0,30.03,ESE,113,0.0,0.0,98,0.00,,---,0.55,VWS V14.01,2013-08-06 14:40:00,
2013-08-06 10:45:00,63.7,63.1,30.04,ESE,113,0.0,0.0,98,0.00,,---,0.55,VWS V14.01,2013-08-06 14:45:00,
2013-08-06 10:51:00,63.7,63.1,30.04,ESE,112,0.0,0.0,98,0.00,,---,0.55,VWS V14.01,2013-08-06 14:51:00,
2013-08-06 10:56:00,63.7,63.1,30.04,ESE,111,0.0,0.0,98,0.00,,---,0.55,VWS V14.01,2013-08-06 14:56:00,
2013-08-06 11:01:00,63.9,63.3,30.03,ESE,111,0.0,0.0,98,0.00,,---,0.55,VWS V14.01,2013-08-06 15:01:00,
2013-08-06 11:06:00,63.9,63.3,30.04,ESE,113,0.0,0.0,98,0.00,,---,0.55,VWS V14.01,2013-08-06 15:06:00,
2013-08-06 11:11:00,63.9,63.3,30.04,ESE,113,0.0,0.0,98,0.00,,---,0.55,VWS V14.01,2013-08-06 15:11:00,
2013-08-06 11:16:00,64.0,63.4,30.04,ESE,113,0.0,0.0,98,0.00,,---,0.55,VWS V14.01,2013-08-06 15:16:00,
2013-08-06 11:21:00,64.1,63.8,30.04,ESE,112,0.0,0.0,99,0.00,,---,0.55,VWS V14.01,2013-08-06 15:21:00,
2013-08-06 11:26:00,64.2,63.9,30.04,ESE,113,0.0,0.0,99,0.00,,---,0.55,VWS V14.01,2013-08-06 15:26:00,
2013-08-06 11:31:00,64.2,63.9,30.04,ESE,111,0.0,0.0,99,0.00,,---,0.55,VWS V14.01,2013-08-06 15:31:00,
2013-08-06 11:36:00,64.2,63.9,30.04,ESE,113,0.0,0.0,99,0.00,,---,0.55,VWS V14.01,2013-08-06 15:36:00,
2013-08-06 11:41:00,64.3,63.7,30.04,ESE,113,0.0,0.0,98,0.00,,---,0.55,VWS V14.01,2013-08-06 15:41:00,
2013-08-06 11:46:00,64.3,64.0,30.04,ESE,113,0.0,0.0,99,0.00,,---,0.55,VWS V14.01,2013-08-06 15:46:00,
2013-08-06 11:51:00,64.6,64.3,30.04,ESE,113,0.0,0.0,99,0.00,,---,0.55,VWS V14.01,2013-08-06 15:51:00,
2013-08-06 11:56:00,64.9,64.6,30.04,ESE,113,0.0,0.0,99,0.00,,---,0.55,VWS V14.01,2013-08-06 15:56:00,
2013-08-06 12:02:00,65.3,65.0,30.04,ESE,113,0.0,0.0,99,0.00,,---,0.55,VWS V14.01,2013-08-06 16:02:00,
2013-08-06 12:06:00,65.4,65.1,30.04,ESE,113,0.0,0.0,99,0.00,,---,0.55,VWS V14.01,2013-08-06 16:06:00,
2013-08-06 12:12:00,65.5,65.2,30.04,ESE,113,0.0,0.0,99,0.00,,---,0.55,VWS V14.01,2013-08-06 16:12:00,
2013-08-06 12:17:00,65.5,65.2,30.04,ESE,113,0.0,0.0,99,0.00,,---,0.55,VWS V14.01,2013-08-06 16:17:00,
2013-08-06 12:22:00,65.6,65.0,30.04,ESE,113,0.0,0.0,98,0.00,,---,0.55,VWS V14.01,2013-08-06 16:22:00,
2013-08-06 12:27:00,65.8,65.2,30.04,ESE,115,0.0,0.0,98,0.00,,---,0.55,VWS V14.01,2013-08-06 16:27:00,
2013-08-06 12:32:00,65.8,65.2,30.04,ESE,117,0.0,0.0,98,0.00,,---,0.55,VWS V14.01,2013-08-06 16:32:00,
2013-08-06 12:38:00,66.0,65.4,30.04,ESE,115,0.0,0.0,98,0.00,,---,0.55,VWS V14.01,2013-08-06 16:38:00,
2013-08-06 12:43:00,66.0,65.4,30.04,ESE,117,0.0,0.0,98,0.00,,---,0.55,VWS V14.01,2013-08-06 16:43:00,
2013-08-06 12:48:00,66.3,65.7,30.04,ESE,114,0.0,0.0,98,0.00,,---,0.55,VWS V14.01,2013-08-06 16:48:00,
2013-08-06 12:53:00,66.4,65.8,30.03,ESE,114,0.0,0.0,98,0.00,,---,0.55,VWS V14.01,2013-08-06 16:53:00,
2013-08-06 12:58:00,66.3,65.7,30.03,ESE,115,0.0,0.0,98,0.00,,---,0.55,VWS V14.01,2013-08-06 16:58:00,
2013-08-06 13:03:00,66.3,65.7,30.03,ESE,114,0.0,0.0,98,0.00,,---,0.55,VWS V14.01,2013-08-06 17:03:00,
2013-08-06 13:08:00,66.5,65.9,30.03,ESE,114,0.0,0.0,98,0.00,,---,0.55,VWS V14.01,2013-08-06 17:08:00,
2013-08-06 13:14:00,66.7,66.1,30.03,ESE,116,0.0,0.0,98,0.00,,---,0.55,VWS V14.01,2013-08-06 17:14:00,
2013-08-06 13:19:00,67.0,66.4,30.03,ESE,115,0.0,0.0,98,0.00,,---,0.55,VWS V14.01,2013-08-06 17:19:00,
2013-08-06 13:24:00,67.1,66.5,30.04,ESE,115,0.0,0.0,98,0.00,,---,0.55,VWS V14.01,2013-08-06 17:24:00,
2013-08-06 13:27:00,67.3,66.7,30.04,ESE,114,0.0,0.0,98,0.00,,---,0.55,VWS V14.01,2013-08-06 17:27:00,
2013-08-06 13:32:00,67.9,67.3,30.04,ESE,114,0.0,0.0,98,0.00,,---,0.55,VWS V14.01,2013-08-06 17:32:00,
2013-08-06 13:37:00,68.4,67.8,30.04,ESE,118,0.0,0.0,98,0.00,,---,0.55,VWS V14.01,2013-08-06 17:37:00,
2013-08-06 13:42:00,69.0,68.4,30.03,East,96,0.0,0.0,98,0.00,,---,0.55,VWS V14.01,2013-08-06 17:42:00,
2013-08-06 13:48:00,69.5,68.9,30.03,East,96,0.0,0.0,98,0.00,,---,0.55,VWS V14.01,2013-08-06 17:48:00,
2013-08-06 13:53:00,69.5,68.3,30.03,East,98,0.0,0.0,96,0.00,,---,0.55,VWS V14.01,2013-08-06 17:53:00,
2013-08-06 13:58:00,69.7,68.2,30.03,ESE,103,0.0,0.0,95,0.00,,---,0.55,VWS V14.01,2013-08-06 17:58:00,
2013-08-06 14:03:00,69.7,67.9,30.03,SE,139,0.0,0.0,94,0.00,,---,0.55,VWS V14.01,2013-08-06 18:03:00,
2013-08-06 14:08:00,69.7,67.9,30.03,SE,139,0.0,0.0,94,0.00,,---,0.55,VWS V14.01,2013-08-06 18:08:00,
2013-08-06 14:13:00,69.8,67.7,30.03,SE,139,0.0,0.0,93,0.00,,---,0.55,VWS V14.01,2013-08-06 18:13:00,
2013-08-06 14:18:00,70.1,68.0,30.03,SE,135,0.0,1.0,93,0.00,,---,0.55,VWS V14.01,2013-08-06 18:18:00,
2013-08-06 14:23:00,70.4,68.6,30.02,SE,125,0.0,0.0,94,0.00,,---,0.55,VWS V14.01,2013-08-06 18:23:00,
2013-08-06 14:28:00,70.1,67.7,30.02,ESE,121,0.0,0.0,92,0.00,,---,0.55,VWS V14.01,2013-08-06 18:28:00,
2013-08-06 14:33:00,69.8,67.7,30.03,ESE,121,0.0,0.0,93,0.00,,---,0.55,VWS V14.01,2013-08-06 18:33:00,
2013-08-06 14:38:00,69.8,68.0,30.02,ESE,122,0.0,0.0,94,0.00,,---,0.55,VWS V14.01,2013-08-06 18:38:00,
2013-08-06 14:43:00,69.7,67.6,30.02,SSE,148,0.0,0.0,93,0.00,,---,0.55,VWS V14.01,2013-08-06 18:43:00,
2013-08-06 14:49:00,69.6,67.2,30.03,SSE,150,0.0,0.0,92,0.00,,---,0.55,VWS V14.01,2013-08-06 18:49:00,
2013-08-06 14:54:00,69.4,67.3,30.02,SE,125,0.0,0.0,93,0.00,,---,0.55,VWS V14.01,2013-08-06 18:54:00,
2013-08-06 14:59:00,69.4,67.3,30.03,SE,129,0.0,0.0,93,0.00,,---,0.55,VWS V14.01,2013-08-06 18:59:00,
2013-08-06 15:04:00,69.3,67.2,30.03,SE,127,0.0,0.0,93,0.00,,---,0.55,VWS V14.01,2013-08-06 19:04:00,
2013-08-06 15:09:00,69.4,67.6,30.03,SE,125,0.0,0.0,94,0.00,,---,0.55,VWS V14.01,2013-08-06 19:09:00,
2013-08-06 15:14:00,69.4,67.3,30.03,SE,126,0.0,0.0,93,0.00,,---,0.55,VWS V14.01,2013-08-06 19:14:00,
2013-08-06 15:19:00,69.5,67.7,30.03,SE,125,0.0,0.0,94,0.00,,---,0.55,VWS V14.01,2013-08-06 19:19:00,
2013-08-06 15:24:00,69.6,67.8,30.03,SE,125,0.0,0.0,94,0.00,,---,0.55,VWS V14.01,2013-08-06 19:24:00,
2013-08-06 15:29:00,69.7,67.9,30.02,SE,125,0.0,0.0,94,0.00,,---,0.55,VWS V14.01,2013-08-06 19:29:00,
2013-08-06 15:34:00,70.0,68.2,30.02,ESE,109,0.0,1.0,94,0.00,,---,0.55,VWS V14.01,2013-08-06 19:34:00,
2013-08-06 15:39:00,70.5,68.4,30.02,ESE,110,0.0,0.0,93,0.00,,---,0.55,VWS V14.01,2013-08-06 19:39:00,
2013-08-06 15:44:00,70.9,68.2,30.02,East,82,0.0,1.0,91,0.00,,---,0.55,VWS V14.01,2013-08-06 19:44:00,
2013-08-06 15:49:00,71.0,67.6,30.02,East,84,0.0,0.0,89,0.00,,---,0.55,VWS V14.01,2013-08-06 19:49:00,
2013-08-06 15:55:00,71.1,68.0,30.02,East,84,0.0,0.0,90,0.00,,---,0.55,VWS V14.01,2013-08-06 19:55:00,
2013-08-06 16:00:00,71.1,68.0,30.02,East,84,0.0,0.0,90,0.00,,---,0.55,VWS V14.01,2013-08-06 20:00:00,
2013-08-06 16:05:00,71.2,67.8,30.02,East,84,0.0,0.0,89,0.00,,---,0.55,VWS V14.01,2013-08-06 20:05:00,
2013-08-06 16:10:00,71.2,67.8,30.02,East,88,0.0,0.0,89,0.00,,---,0.55,VWS V14.01,2013-08-06 20:10:00,
2013-08-06 16:15:00,71.2,67.8,30.02,SE,129,0.0,0.0,89,0.00,,---,0.55,VWS V14.01,2013-08-06 20:15:00,
2013-08-06 16:20:00,71.3,68.2,30.03,SSE,156,0.0,0.0,90,0.00,,---,0.55,VWS V14.01,2013-08-06 20:20:00,
2013-08-06 16:25:00,71.4,68.0,30.03,SSE,150,0.0,0.0,89,0.00,,---,0.55,VWS V14.01,2013-08-06 20:25:00,
2013-08-06 16:30:00,71.7,68.3,30.03,ESE,115,0.0,0.0,89,0.00,,---,0.55,VWS V14.01,2013-08-06 20:30:00,
2013-08-06 16:32:00,71.7,68.9,30.03,ESE,115,0.0,0.0,91,0.00,,---,0.55,VWS V14.01,2013-08-06 20:32:00,
2013-08-06 16:37:00,71.6,68.2,30.03,SE,135,0.0,0.0,89,0.00,,---,0.55,VWS V14.01,2013-08-06 20:37:00,
2013-08-06 16:42:00,71.6,68.5,30.03,SE,134,0.0,0.0,90,0.00,,---,0.55,VWS V14.01,2013-08-06 20:42:00,
2013-08-06 16:47:00,71.5,68.4,30.03,SE,135,0.0,0.0,90,0.00,,---,0.55,VWS V14.01,2013-08-06 20:47:00,
2013-08-06 16:52:00,71.8,68.4,30.03,SE,139,0.0,0.0,89,0.00,,---,0.55,VWS V14.01,2013-08-06 20:52:00,
2013-08-06 16:57:00,72.2,68.8,30.03,SE,139,0.0,0.0,89,0.00,,---,0.55,VWS V14.01,2013-08-06 20:57:00,
2013-08-06 17:02:00,72.4,69.0,30.03,ESE,111,0.0,0.0,89,0.00,,---,0.55,VWS V14.01,2013-08-06 21:02:00,
2013-08-06 17:08:00,72.4,69.0,30.03,ESE,118,0.0,0.0,89,0.00,,---,0.55,VWS V14.01,2013-08-06 21:08:00,
2013-08-06 17:13:00,72.6,69.2,30.03,SE,139,0.0,0.0,89,0.00,,---,0.55,VWS V14.01,2013-08-06 21:13:00,
2013-08-06 17:18:00,72.5,68.8,30.02,SE,130,0.0,0.0,88,0.00,,---,0.55,VWS V14.01,2013-08-06 21:18:00,
2013-08-06 17:23:00,72.4,68.3,30.02,SE,134,0.0,0.0,87,0.00,,---,0.55,VWS V14.01,2013-08-06 21:23:00,
2013-08-06 17:28:00,72.2,68.4,30.02,ESE,112,0.0,1.0,88,0.00,,---,0.55,VWS V14.01,2013-08-06 21:28:00,
2013-08-06 17:33:00,72.0,67.9,30.02,ESE,110,0.0,0.0,87,0.00,,---,0.55,VWS V14.01,2013-08-06 21:33:00,
2013-08-06 17:38:00,72.2,68.1,30.02,ESE,114,0.0,1.0,87,0.00,,---,0.55,VWS V14.01,2013-08-06 21:38:00,
2013-08-06 17:43:00,72.1,68.3,30.02,ESE,116,0.0,1.0,88,0.00,,---,0.55,VWS V14.01,2013-08-06 21:43:00,
2013-08-06 17:48:00,71.9,67.8,30.02,SE,125,0.0,0.0,87,0.00,,---,0.55,VWS V14.01,2013-08-06 21:48:00,
2013-08-06 17:53:00,71.8,68.1,30.02,SE,130,0.0,0.0,88,0.00,,---,0.55,VWS V14.01,2013-08-06 21:53:00,
2013-08-06 17:58:00,71.8,68.4,30.02,SE,136,0.0,1.0,89,0.00,,---,0.55,VWS V14.01,2013-08-06 21:58:00,
2013-08-06 18:03:00,71.7,68.0,30.02,ESE,105,0.0,0.0,88,0.00,,---,0.55,VWS V14.01,2013-08-06 22:03:00,
2013-08-06 18:08:00,71.6,68.2,30.02,ESE,105,0.0,0.0,89,0.00,,---,0.55,VWS V14.01,2013-08-06 22:08:00,
2013-08-06 18:14:00,71.4,67.7,30.02,SSE,154,0.0,0.0,88,0.00,,---,0.55,VWS V14.01,2013-08-06 22:14:00,
2013-08-06 18:19:00,71.1,67.7,30.02,SE,131,0.0,0.0,89,0.00,,---,0.55,VWS V14.01,2013-08-06 22:19:00,
2013-08-06 18:24:00,70.7,67.3,30.02,SE,131,0.0,0.0,89,0.00,,---,0.55,VWS V14.01,2013-08-06 22:24:00,
2013-08-06 18:29:00,70.5,67.4,30.02,ESE,123,0.0,0.0,90,0.00,,---,0.55,VWS V14.01,2013-08-06 22:29:00,
2013-08-06 18:34:00,70.4,67.3,30.02,SE,124,0.0,0.0,90,0.00,,---,0.55,VWS V14.01,2013-08-06 22:34:00,
2013-08-06 18:39:00,70.2,67.1,30.02,ESE,122,0.0,0.0,90,0.00,,---,0.55,VWS V14.01,2013-08-06 22:39:00,
2013-08-06 18:44:00,70.0,66.9,30.02,ESE,105,0.0,0.0,90,0.00,,---,0.55,VWS V14.01,2013-08-06 22:44:00,
2013-08-06 18:49:00,69.8,66.7,30.02,SE,133,0.0,0.0,90,0.00,,---,0.55,VWS V14.01,2013-08-06 22:49:00,
2013-08-06 18:54:00,69.6,66.9,30.02,ESE,105,0.0,1.0,91,0.00,,---,0.55,VWS V14.01,2013-08-06 22:54:00,
2013-08-06 19:00:00,69.4,66.7,30.02,ESE,108,0.0,0.0,91,0.00,,---,0.55,VWS V14.01,2013-08-06 23:00:00,
2013-08-06 19:05:00,69.2,66.5,30.03,SE,133,0.0,0.0,91,0.00,,---,0.55,VWS V14.01,2013-08-06 23:05:00,
2013-08-06 19:10:00,68.8,66.1,30.03,SE,128,0.0,0.0,91,0.00,,---,0.55,VWS V14.01,2013-08-06 23:10:00,
2013-08-06 19:15:00,68.6,66.2,30.03,SE,125,0.0,0.0,92,0.00,,---,0.55,VWS V14.01,2013-08-06 23:15:00,
2013-08-06 19:20:00,68.4,66.0,30.03,SE,125,0.0,0.0,92,0.00,,---,0.55,VWS V14.01,2013-08-06 23:20:00,
2013-08-06 19:25:00,68.2,66.1,30.03,ESE,105,0.0,1.0,93,0.00,,---,0.55,VWS V14.01,2013-08-06 23:25:00,
2013-08-06 19:30:00,68.1,66.0,30.03,ESE,105,0.0,0.0,93,0.00,,---,0.55,VWS V14.01,2013-08-06 23:30:00,
2013-08-06 19:35:00,67.9,65.8,30.03,ESE,121,0.0,0.0,93,0.00,,---,0.55,VWS V14.01,2013-08-06 23:35:00,
2013-08-06 19:40:00,67.8,65.7,30.03,ESE,107,0.0,1.0,93,0.00,,---,0.55,VWS V14.01,2013-08-06 23:40:00,
2013-08-06 19:45:00,67.6,65.5,30.03,SE,139,1.0,2.0,93,0.00,,---,0.55,VWS V14.01,2013-08-06 23:45:00,
2013-08-06 19:50:00,67.4,65.3,30.03,SE,129,0.0,1.0,93,0.00,,---,0.55,VWS V14.01,2013-08-06 23:50:00,
2013-08-06 19:55:00,67.2,65.1,30.03,ESE,115,1.0,1.0,93,0.00,,---,0.55,VWS V14.01,2013-08-06 23:55:00,
2013-08-06 20:00:00,67.1,65.3,30.03,South,183,0.0,1.0,94,0.00,,---,0.55,VWS V14.01,2013-08-07 00:00:00,
2013-08-06 20:05:00,67.0,65.2,30.03,ESE,115,0.0,2.0,94,0.00,,---,0.55,VWS V14.01,2013-08-07 00:05:00,
2013-08-06 20:10:00,66.9,65.1,30.03,SE,130,1.0,2.0,94,0.00,,---,0.55,VWS V14.01,2013-08-07 00:10:00,
2013-08-06 20:15:00,66.8,65.0,30.03,ESE,122,0.0,1.0,94,0.00,,---,0.55,VWS V14.01,2013-08-07 00:15:00,
2013-08-06 20:21:00,66.7,64.9,30.04,East,100,0.0,0.0,94,0.00,,---,0.55,VWS V14.01,2013-08-07 00:21:00,
2013-08-06 20:26:00,66.7,65.2,30.04,ESE,106,1.0,1.0,95,0.00,,---,0.55,VWS V14.01,2013-08-07 00:26:00,
2013-08-06 20:31:00,66.5,65.0,30.04,ESE,121,0.0,1.0,95,0.00,,---,0.55,VWS V14.01,2013-08-07 00:31:00,
2013-08-06 20:36:00,66.3,64.8,30.04,East,101,0.0,0.0,95,0.00,,---,0.55,VWS V14.01,2013-08-07 00:36:00,
2013-08-06 20:41:00,66.2,65.0,30.04,ESE,120,0.0,0.0,96,0.00,,---,0.55,VWS V14.01,2013-08-07 00:41:00,
2013-08-06 20:46:00,66.2,65.0,30.04,ESE,107,0.0,1.0,96,0.00,,---,0.55,VWS V14.01,2013-08-07 00:46:00,
2013-08-06 20:51:00,66.1,64.9,30.04,ESE,115,0.0,0.0,96,0.00,,---,0.55,VWS V14.01,2013-08-07 00:51:00,
2013-08-06 20:56:00,66.0,64.8,30.04,SE,133,1.0,1.0,96,0.00,,---,0.55,VWS V14.01,2013-08-07 00:56:00,
2013-08-06 21:02:00,66.0,64.8,30.04,ESE,108,0.0,1.0,96,0.00,,---,0.55,VWS V14.01,2013-08-07 01:02:00,
2013-08-06 21:07:00,66.0,64.8,30.04,ESE,107,0.0,2.0,96,0.00,,---,0.55,VWS V14.01,2013-08-07 01:07:00,
2013-08-06 21:12:00,66.0,65.1,30.04,ESE,121,0.0,2.0,97,0.00,,---,0.55,VWS V14.01,2013-08-07 01:12:00,
2013-08-06 21:17:00,66.0,65.1,30.04,ESE,103,0.0,2.0,97,0.00,,---,0.55,VWS V14.01,2013-08-07 01:17:00,
2013-08-06 21:22:00,66.0,65.1,30.04,ESE,107,1.0,1.0,97,0.00,,---,0.55,VWS V14.01,2013-08-07 01:22:00,
2013-08-06 21:27:00,66.0,65.1,30.04,SE,125,2.0,2.0,97,0.00,,---,0.55,VWS V14.01,2013-08-07 01:27:00,
2013-08-06 21:33:00,65.9,65.0,30.04,East,101,0.0,1.0,97,0.00,,---,0.55,VWS V14.01,2013-08-07 01:33:00,
2013-08-06 21:38:00,65.9,65.0,30.04,East,100,0.0,1.0,97,0.00,,---,0.55,VWS V14.01,2013-08-07 01:38:00,
2013-08-06 21:43:00,65.9,65.0,30.04,ESE,107,0.0,1.0,97,0.00,,---,0.55,VWS V14.01,2013-08-07 01:43:00,
2013-08-06 21:48:00,65.8,64.9,30.04,East,99,0.0,1.0,97,0.00,,---,0.55,VWS V14.01,2013-08-07 01:48:00,
2013-08-06 21:53:00,65.8,64.9,30.04,ESE,104,1.0,1.0,97,0.00,,---,0.55,VWS V14.01,2013-08-07 01:53:00,
2013-08-06 21:58:00,65.8,64.9,30.05,ESE,105,0.0,1.0,97,0.00,,---,0.55,VWS V14.01,2013-08-07 01:58:00,
2013-08-06 22:03:00,65.8,64.9,30.05,ESE,105,0.0,1.0,97,0.00,,---,0.55,VWS V14.01,2013-08-07 02:03:00,
2013-08-06 22:08:00,65.8,65.2,30.04,ESE,107,0.0,2.0,98,0.00,,---,0.55,VWS V14.01,2013-08-07 02:08:00,
2013-08-06 22:14:00,65.8,65.2,30.05,ESE,103,0.0,0.0,98,0.00,,---,0.55,VWS V14.01,2013-08-07 02:14:00,
2013-08-06 22:19:00,65.8,65.2,30.05,ESE,106,0.0,0.0,98,0.00,,---,0.55,VWS V14.01,2013-08-07 02:19:00,
2013-08-06 22:24:00,65.8,65.2,30.05,East,101,0.0,0.0,98,0.00,,---,0.55,VWS V14.01,2013-08-07 02:24:00,
2013-08-06 22:29:00,65.8,65.2,30.05,ESE,110,0.0,0.0,98,0.00,,---,0.55,VWS V14.01,2013-08-07 02:29:00,
2013-08-06 22:34:00,65.8,65.2,30.05,ESE,109,0.0,0.0,98,0.00,,---,0.55,VWS V14.01,2013-08-07 02:34:00,
2013-08-06 22:39:00,65.8,65.2,30.05,ESE,115,0.0,0.0,98,0.00,,---,0.55,VWS V14.01,2013-08-07 02:39:00,
2013-08-06 22:44:00,65.8,65.2,30.05,ESE,113,0.0,0.0,98,0.00,,---,0.55,VWS V14.01,2013-08-07 02:44:00,
2013-08-06 22:49:00,65.8,65.2,30.05,ESE,108,0.0,0.0,98,0.00,,---,0.55,VWS V14.01,2013-08-07 02:49:00,
2013-08-06 22:54:00,65.8,65.2,30.05,ESE,115,0.0,0.0,98,0.00,,---,0.55,VWS V14.01,2013-08-07 02:54:00,
2013-08-06 22:59:00,65.8,65.2,30.05,ESE,107,0.0,0.0,98,0.00,,---,0.55,VWS V14.01,2013-08-07 02:59:00,
2013-08-06 23:04:00,65.8,65.2,30.05,East,101,0.0,0.0,98,0.00,,---,0.55,VWS V14.01,2013-08-07 03:04:00,
2013-08-06 23:09:00,65.7,65.1,30.05,ESE,105,0.0,0.0,98,0.00,,---,0.55,VWS V14.01,2013-08-07 03:09:00,
2013-08-06 23:14:00,65.7,65.1,30.05,East,98,0.0,0.0,98,0.00,,---,0.55,VWS V14.01,2013-08-07 03:14:00,
2013-08-06 23:19:00,65.7,65.1,30.05,ESE,110,0.0,0.0,98,0.00,,---,0.55,VWS V14.01,2013-08-07 03:19:00,
2013-08-06 23:24:00,65.7,65.1,30.05,ESE,107,0.0,0.0,98,0.00,,---,0.55,VWS V14.01,2013-08-07 03:24:00,
2013-08-06 23:29:00,65.6,65.0,30.05,ESE,110,0.0,0.0,98,0.00,,---,0.55,VWS V14.01,2013-08-07 03:29:00,
2013-08-06 23:34:00,65.6,65.0,30.05,ESE,112,0.0,0.0,98,0.00,,---,0.55,VWS V14.01,2013-08-07 03:34:00,
2013-08-06 23:39:00,65.6,65.0,30.05,ESE,113,0.0,0.0,98,0.00,,---,0.55,VWS V14.01,2013-08-07 03:39:00,
2013-08-06 23:44:00,65.6,65.0,30.05,ESE,105,0.0,0.0,98,0.00,,---,0.55,VWS V14.01,2013-08-07 03:44:00,
2013-08-06 23:50:00,65.6,65.0,30.05,ESE,109,0.0,0.0,98,0.00,,---,0.55,VWS V14.01,2013-08-07 03:50:00,
2013-08-06 23:55:00,65.6,65.0,30.05,ESE,118,0.0,0.0,98,0.00,,---,0.55,VWS V14.01,2013-08-07 03:55:00,